COSMOS 1275 DEB

Satellite information

Favourite Embed

Satellite Type and Status

DEBRISIN ORBIT

Key statistics

Satellite COSMOS 1275 DEB at a glance.

Uptime

16207

Days in orbit

Revolutions

≈ 14.5

Per day

Orbit

LEO

Low Earth Orbit

Inclination

82.8

Latest

Satellite identification and parameters

Extended collection of information and parameters for COSMOS 1275 DEB.

Object identification

Identified? True

Debris? True

Object name: COSMOS 1275 DEB

International designator: 1981-053KT

Object number (NORAD): 17624

Object ID (CCSDS): 17624

Country: COMMONWEALTH OF INDEPENDENT STATES (CIS)

Current information (Y/N): Y

RCS size: SMALL

Orbital parameters

Period: 99.602 minutes

Inclination: 82.8387 deg

SMA: 7117.71 km

Apoapsis: 746.723 km

Periapsis: 732.428 km

RAAN: 282.4892 deg

Eccentricy: 0.0010042

Argument of periapsis: 206.2481 deg

Mean anomaly: 183.8529 deg

Mean motion: 14.45747052 rev/day

Mean motion (dot): 0.00008272 rev/day2

B* drag term: 0.0023277 1/REarth

Two-line elements (TLE)

Creation date: Oct. 16, 2025, 7:26 a.m.

Reference frame: TEME

Reference center: EARTH

Epoch: Oct. 15, 2025, 11:23 p.m. UTC

TLE line 0: 0 COSMOS 1275 DEB

TLE line 1: 1 17624U 81053KT 25288.97432889 .00008272 00000-0 23277-2 0 9994

TLE line 2: 2 17624 82.8387 282.4892 0010042 206.2481 183.8529 14.45747052 88655

Live tracking on map

Real-time ground track for satellite COSMOS 1275 DEB.

In-orbit conjunctions

A list of the most updated potential collisions computed for object COSMOS 1275 DEB.

Target Orbit TCA Probability of collision Miss distance Type
AZUR (GRS A) SSO 2025-08-14 15:41:15 0.0002445853 949.0 (m) PAYLOAD
FENGYUN 1C DEB SSO 2025-06-25 05:14:12 0.0001093271 272.0 (m) DEBRIS
CZ-6A DEB SSO 2025-06-09 19:24:41 0.000135971 133.0 (m) DEBRIS
FENGYUN 1C DEB SSO 2025-05-15 09:03:40 0.00023722 60.0 (m) DEBRIS
CZ-6A DEB LEO 2025-02-01 15:23:34 0.0001181979 377.0 (m) DEBRIS

Associated space launch

Navigation satellite providing location information for the Tsiklon-B navigation system

COSMOS 1275 DEB was lifted into orbit during the mission ‘Kosmos-3M | Parus 27’, on board a Kosmos-3M space rocket.

The launch took place on June 4, 1981, 3:41 p.m. from 132/2.

For more information about the launch, click the button.

Launch to space Kosmos-3M | Parus 27
Kosmos-3M | Parus 27

Agency: N/A

Status: Launch Successful

Launch date: June 4, 1981, 3:41 p.m. UTC

Rocket: Kosmos-3M

Launch pad: 132/2

Location: Plesetsk Cosmodrome, Russian Federation

...

Latest news about this satellite

There are no fresh news available about this satellite. Check back as we update our databases every day.


Newsletter sign-up

Weekly statistics, charts and insights to help you stay on top of the space industry.